Location: Asheville, NC
(35.6000°N, 82.5500°W)
Time: 00:06:35
(UTC-05:00)

Vanguard 1 - Pass Details

Date: 08 December 2017
Orbit: 649 x 3834 km, 34.3° (Epoch: 18 January)

Event Time Altitude Azimuth Distance (km) Brightness Sun altitude
Rises 08:28:56 0° 212° (SSW) 7,962 14.8 9.7°
Reaches altitude 10° 08:35:18 10° 204° (SSW) 6,889 14.6 10.7°
Maximum altitude 08:54:11 36° 148° (SSE) 4,215 14.6 13.7°
Drops below altitude 10° 09:07:06 10° 88° (E) 4,819 14.4 15.6°
Sets 09:10:31 0° 80° (E) 5,435 14.4 16.1°
